Weather History for KPTK - March, 2013

Change the Weather History Date:

Sunday, March 24, 2013

  Actual Average Record
Temperature  
Mean Temperature 28 °F -  
Max Temperature 36 °F 45 °F 66 °F (2003)
Min Temperature 21 °F 29 °F 12 °F (2014)
Degree Days  
Heating Degree Days 37    
Moisture  
Dew Point 22 °F    
Average Humidity 74    
Maximum Humidity 89    
Minimum Humidity 54    
Precipitation  
Precipitation 0.00 in - - ()
Sea Level Pressure  
Sea Level Pressure 29.86 in    
Wind  
Wind Speed 7 mph (NE)    
Max Wind Speed 18 mph    
Max Gust Speed 25 mph    
Visibility 10 miles    
Events      
Averages and records for this station are not official NWS values.
T = Trace of Precipitation, MM = Missing Value Source: NWS Daily Summary

Daily Weather History Graph

Daily Weather History Graph

Search for Another Location

Airport or City:

Trip Planner

Search our weather history database for the weather conditions in past years. The results will help you decide how hot, cold, wet, or windy it might be!

Date:

Astronomy

Mar. 24, 2013 Rise Set
Actual Time 7:29 AM EDT 7:50 PM EDT
Civil Twilight 7:01 AM EDT 8:19 PM EDT
Nautical Twilight 6:28 AM EDT 8:52 PM EDT
Astronomical Twilight 5:54 AM EDT 9:26 PM EDT
Moon 5:15 PM EDT (3/24) 5:42 AM EDT (3/24)
Length of Visible Light 13h 17m
Length of Day
12h 21m
Waxing Gibbous, 91% of the Moon is Illuminated
Mar 24
Waxing Gibbous
Mar 27
Full
Apr 3
Last Quarter
Apr 10
New
Apr 18
First Quarter

Hourly Weather History & Observations

Time (EDT) Temp. Windchill Dew Point Humidity Pressure Visibility Wind Dir Wind Speed Gust Speed Precip Events Conditions
12:53 AM 25.0 °F 18.1 °F 21.0 °F 85% 30.03 in 10.0 mi NE 5.8 mph - N/A   Clear
1:53 AM 24.1 °F 19.7 °F 19.9 °F 84% 30.02 in 10.0 mi North 3.5 mph - N/A   Clear
2:53 AM 24.1 °F - 19.9 °F 84% 30.03 in 10.0 mi Calm Calm - N/A   Clear
3:53 AM 21.9 °F - 19.0 °F 89% 30.03 in 9.0 mi Calm Calm - N/A   Clear
4:53 AM 23.0 °F - 19.9 °F 88% 30.03 in 9.0 mi Calm Calm - N/A   Clear
5:53 AM 21.9 °F - 19.0 °F 89% 30.00 in 9.0 mi Calm Calm - N/A   Mostly Cloudy
6:53 AM 24.1 °F 19.7 °F 21.0 °F 88% 30.01 in 10.0 mi NNE 3.5 mph - N/A   Mostly Cloudy
7:53 AM 26.1 °F 20.5 °F 21.9 °F 84% 30.00 in 10.0 mi NE 4.6 mph - N/A   Overcast
8:53 AM 28.0 °F 19.3 °F 23.0 °F 81% 29.99 in 10.0 mi NE 9.2 mph - N/A   Overcast
9:53 AM 28.9 °F 21.9 °F 25.0 °F 85% 29.98 in 10.0 mi ENE 6.9 mph - N/A   Overcast
10:17 AM 30.2 °F 23.4 °F 26.6 °F 86% 29.94 in 10.0 mi ENE 6.9 mph - N/A   Overcast
10:53 AM 30.9 °F 22.2 °F 26.1 °F 82% 29.95 in 9.0 mi ENE 10.4 mph - N/A   Overcast
11:00 AM 30.2 °F 21.3 °F 26.6 °F 86% 29.91 in 10.0 mi NE 10.4 mph - N/A   Overcast
11:53 AM 32.0 °F 23.6 °F 25.0 °F 75% 29.92 in 9.0 mi ENE 10.4 mph - N/A   Overcast
12:07 PM 32.0 °F 23.6 °F 24.8 °F 75% 29.88 in 9.0 mi NE 10.4 mph - N/A   Overcast
12:53 PM 34.0 °F 24.6 °F 25.0 °F 70% 29.88 in 9.0 mi ENE 13.8 mph - N/A   Overcast
1:53 PM 34.0 °F 24.2 °F 24.1 °F 67% 29.84 in 9.0 mi NE 15.0 mph 23.0 mph N/A   Overcast
2:53 PM 34.0 °F 25.0 °F 24.1 °F 67% 29.82 in 10.0 mi NE 12.7 mph 25.3 mph N/A   Overcast
3:25 PM 35.6 °F 25.9 °F 21.2 °F 56% 29.76 in 10.0 mi ENE 16.1 mph 25.3 mph N/A   Mostly Cloudy
3:53 PM 35.1 °F 25.2 °F 19.9 °F 54% 29.79 in 10.0 mi ENE 16.1 mph 25.3 mph N/A   Overcast
4:53 PM 34.0 °F 24.6 °F 19.0 °F 54% 29.78 in 10.0 mi ENE 13.8 mph 23.0 mph N/A   Overcast
5:53 PM 32.0 °F 21.2 °F 18.0 °F 56% 29.74 in 10.0 mi ENE 16.1 mph 23.0 mph N/A   Overcast
6:53 PM 30.9 °F 19.1 °F 19.9 °F 64% 29.73 in 10.0 mi ENE 18.4 mph 25.3 mph N/A   Overcast
7:34 PM 30.2 °F 21.3 °F 19.4 °F 64% 29.68 in 10.0 mi NE 10.4 mph 24.2 mph N/A   Overcast
7:53 PM 30.0 °F 20.0 °F 19.9 °F 66% 29.71 in 10.0 mi ENE 12.7 mph 24.2 mph N/A   Overcast
8:22 PM 30.2 °F 19.8 °F 21.2 °F 69% 29.67 in 10.0 mi NE 13.8 mph 23.0 mph N/A   Overcast
8:53 PM 30.0 °F 20.0 °F 21.0 °F 69% 29.71 in 10.0 mi NE 12.7 mph - N/A   Overcast
9:53 PM 30.0 °F 20.0 °F 21.9 °F 72% 29.70 in 10.0 mi NNE 12.7 mph 20.7 mph N/A   Overcast
10:53 PM 30.0 °F 20.0 °F 21.9 °F 72% 29.68 in 10.0 mi NE 12.7 mph - N/A   Overcast
11:53 PM 30.0 °F 20.5 °F 21.9 °F 72% 29.66 in 10.0 mi NE 11.5 mph 21.9 mph N/A   Overcast